Weather History for Durango, Mexico

Change the Weather History Date:

Sunday, April 7, 2013

  Actual Average Record
Temperature  
Mean Temperature 72 °F -  
Max Temperature 90 °F 82 °F 91 °F (1999)
Min Temperature 54 °F 47 °F 35 °F (1998)
Cooling Degree Days 7    
Growing Degree Days 22 (Base 50)    
Moisture  
Dew Point 28 °F    
Average Humidity 23    
Maximum Humidity 58    
Minimum Humidity 6    
Precipitation  
Precipitation 0.00 in - - ()
Sea Level Pressure  
Sea Level Pressure 29.94 in    
Wind  
Wind Speed 8 mph ()    
Max Wind Speed 20 mph    
Max Gust Speed -    
Visibility 12.0 miles    
Events      
Averages and records for this station are not official NWS values.
T = Trace of Precipitation, MM = Missing Value Source: Averaged Metar Reports

Daily Weather History Graph

Daily Weather History Graph

Search for Another Location

Airport:

Trip Planner

Search our weather history database for the weather conditions in past years. The results will help you decide how hot, cold, wet, or windy it might be!

Date:

Astronomy

Apr. 07, 2013 Rise Set
Actual Time 7:43 AM CDT 8:16 PM CDT
Civil Twilight 7:20 AM CDT 8:39 PM CDT
Nautical Twilight 6:54 AM CDT 9:06 PM CDT
Astronomical Twilight 6:26 AM CDT 9:33 PM CDT
Moon 5:46 AM CDT (4/7) 6:04 PM CDT (4/7)
Length of Visible Light 13h 18m
Length of Day
12h 32m
Waning Crescent, 8% of the Moon is Illuminated
Apr 7
Waning Crescent
Apr 10
New
Apr 18
First Quarter
Apr 25
Full
May 2
Last Quarter

Hourly Weather History & Observations

Time (CDT) Temp. Heat Index Dew Point Humidity Pressure Visibility Wind Dir Wind Speed Gust Speed Precip Events Conditions
6:03 AM 53.6 °F - 37.4 °F 54% 30.16 in 8.0 mi South 8.1 mph - N/A   Clear
6:40 AM 51.8 °F - 37.4 °F 58% 29.74 in 8.0 mi SSW 4.6 mph - N/A   Clear
6:50 AM 56 °F - 38 °F 39% 29.80 in 6 mi WSW 4.5 mph - -  
7:41 AM 51.8 °F - 35.6 °F 54% 30.18 in 14.0 mi SSW 5.8 mph - N/A   Clear
8:40 AM 57.2 °F - 33.8 °F 41% 30.20 in 14.0 mi SSW 11.5 mph - N/A   Scattered Clouds
9:41 AM 60.8 °F - 26.6 °F 27% 29.86 in 14.0 mi SSW 11.5 mph - N/A   Clear
9:50 AM 62 °F - 33 °F 22% 29.90 in 25 mi WNW 4.5 mph - -   Scattered Clouds
10:43 AM 66.2 °F - 23.0 °F 19% 30.22 in 14.0 mi South 8.1 mph - N/A   Clear
11:43 AM 71.6 °F - 17.6 °F 13% 30.20 in 14.0 mi South 6.9 mph - N/A   Scattered Clouds
12:45 PM 77.0 °F - 15.8 °F 10% 29.77 in 14.0 mi South 10.4 mph - N/A   Scattered Clouds
12:53 PM 77 °F - 33 °F 11% 29.82 in 31 mi WSW 4.5 mph - -   Scattered Clouds
1:42 PM 78.8 °F - 50.0 °F 36% 30.13 in 14.0 mi SSE 6.9 mph - N/A   Mostly Cloudy
2:44 PM 80.6 °F - 6.8 °F 6% 30.10 in 14.0 mi SW 12.7 mph - N/A   Mostly Cloudy
3:40 PM 82.4 °F 81.7 °F 55.4 °F 39% 29.66 in 14.0 mi SW 9.2 mph - N/A   Mostly Cloudy
3:59 PM 86 °F - 30 °F 7% 29.66 in 31 mi WSW 6.7 mph - -   Overcast
4:40 PM 82.4 °F - 10.4 °F 7% 30.04 in 14.0 mi West 16.1 mph - N/A   Mostly Cloudy
5:41 PM 78.8 °F - 14.0 °F 9% 30.04 in 14.0 mi SW 19.6 mph - N/A   Mostly Cloudy
6:45 PM 77.0 °F - 14.0 °F 9% 29.72 in 14.0 mi SW 12.7 mph - N/A   Mostly Cloudy
6:51 PM 78 °F - 35 °F 12% 29.57 in 31 mi WSW 6.7 mph - -   Overcast
7:43 PM 77.0 °F - 14.0 °F 9% 30.06 in 14.0 mi WSW 12.7 mph - N/A   Mostly Cloudy
8:40 PM 69.8 °F - 19.4 °F 15% 30.08 in 12.0 mi SSW 17.3 mph - N/A   Scattered Clouds
9:48 PM 69.8 °F - 21.2 °F 16% 30.12 in 12.0 mi SSW 17.3 mph - N/A   Scattered Clouds
9:51 PM 70 °F - 33 °F 15% 29.60 in 6 mi WSW 6.7 mph - -   Partly Cloudy
10:48 PM 66.2 °F - 23.0 °F 19% 30.15 in 12.0 mi SSW 17.3 mph - N/A   Scattered Clouds
12:49 AM 61 °F - 36 °F 27% 29.66 in 6 mi WNW 2.2 mph - -